マックホルツ第2彗星

141P/Machholz 2 (2020)

English version
Home page
Updated on June 11, 2016

---------------------------------------------------------------------

・ プロフィール

・ 軌道要素

Epoch 2020 Dec. 17.0 TT = JDT 2459200.5
T 2020 Dec. 15.39673 TT                                 MPCW
q   0.8079396            (2000.0)            P               Q
n   0.18456621     Peri.  153.54444     +0.80361989     -0.55591738
a   3.0551645      Node   241.84868     +0.49436699     +0.82233067
e   0.7355496      Incl.   13.94535     +0.33135533     +0.12135952
P   5.34
From 243 observations 2005 Feb. 27-2015 Oct. 20, mean residual 0".8.
     Nongravitational parameters A1 = +0.52, A2 = -0.2024.

・ 星図

・ 光度変化

        m1 = 14.0 + 5 logΔ + 20 log r(t - 10)

---------------------------------------------------------------------

軌道要素はM.P.E.C. 2016-D32に掲載されたものです。
星図はステラナビゲータ Ver.10 (アストロアーツ) で作成したものです。
光度グラフはComet for Windowsで作成したものです。

---------------------------------------------------------------------

Copyright(C) Seiichi Yoshida (comet@aerith.net). All rights reserved.